Location: Wilsall
(45.9940°N, 110.6590°W)
Time: 21:58:08
(UTC-07:00)

Daily predictions for brighter satellites

Satellite Brightness Start Highest point End
(mag) Time Altitude Azimuth Time Altitude Azimuth Time Altitude Azimuth
Cosmos 1461 4.2 17:41:16 10° SSE 17:44:36 23° ESE 17:47:52 10° ENE
Cosmos 1980 3.8 17:39:12 10° SSW 17:44:48 65° ESE 17:50:26 10° NNE
USA 215 3.6 17:43:30 10° E 17:49:43 48° NNE 17:55:56 10° NW
Cosmos 1500 Rocket 3.5 17:45:40 10° S 17:50:01 78° E 17:54:24 10° NNE
Cosmos 1626 3.8 17:47:52 10° SE 17:50:09 16° E 17:52:26 10° NE
CZ-4 R/B 4.5 17:46:38 10° SSE 17:50:43 61° ENE 17:54:49 10° N
Lacrosse 5 rocket 2.2 17:50:39 10° WNW 17:54:18 49° SW 17:58:06 10° SSE
BREEZE-M DEB (TANK) 2.5 17:51:56 10° SW 17:54:47 33° SSE 17:56:47 10° E
Cosmos 332 Rocket 4.4 17:50:16 10° SW 17:55:02 59° WNW 17:59:52 10° NNE
Cosmos 44 3.4 17:50:50 10° SSW 17:56:05 85° ESE 18:01:05 10° NE
Sich 1 4.5 17:53:22 10° SE 17:56:27 19° E 17:59:32 10° NE
Meteor 1-11 4.5 17:51:54 10° SSE 17:57:23 51° E 18:02:57 10° NNE
CZ-2C R/B 3.0 17:56:11 10° S 18:01:04 63° W 18:05:50 10° NNW
Cosmos 2219 Rocket 2.6 17:55:57 10° SW 18:01:33 66° WNW 18:07:11 10° NNE
Cosmos 1726 2.2 17:57:53 10° N 18:01:41 83° W 18:05:28 10° S
NOSS 0 Rocket 4.0 17:56:15 10° SSW 18:02:29 90° NW 18:08:45 10° NNE
ALOS 3.8 18:02:06 10° E 18:04:53 16° ENE 18:07:41 10° NNE
Cosmos 1633 Rocket 4.3 18:03:34 10° SE 18:06:50 21° E 18:10:06 10° NE
Cosmos 1328 3.9 18:04:00 10° SSW 18:07:56 79° W 18:11:55 10° N
Cosmos 2333 Rocket 2.4 18:03:01 10° SSW 18:08:40 74° WNW 18:14:21 10° NNE
Cosmos 1455 3.1 18:06:19 10° NNE 18:09:34 26° ENE 18:12:49 10° SE
COSMOS 2441 4.4 18:05:11 10° SSE 18:10:02 90° S 18:14:55 10° NNW
Abrixas 2.4 18:09:21 10° WSW 18:12:17 73° SSE 18:14:25 17° ENE
Cosmos 2278 Rocket 3.1 18:08:17 10° NW 18:13:49 54° WSW 18:19:19 10° S
MSX 4.2 18:11:25 10° S 18:17:06 71° WSW 18:22:52 10° NNW
CENTAUR R/B 3.7 18:13:51 10° WSW 18:19:47 39° NW 18:26:29 10° NNE
Cosmos 1242 Rocket 4.1 18:17:31 10° NNE 18:19:08 16° NE 18:19:08 16° NE
SMAP 4.3 18:16:08 10° S 18:20:36 46° W 18:25:05 10° NNW
Cosmos 1184 Rocket 4.1 18:18:14 10° SE 18:20:53 22° E 18:22:06 18° ENE
Timation 1 Rocket 4.5 18:15:28 10° NNW 18:21:31 84° WSW 18:27:32 10° SSE
Cosmos 1703 3.5 18:17:48 10° SSE 18:21:31 46° E 18:25:17 10° NNE
Cosmos 371 Rocket 4.4 18:18:20 10° SW 18:22:55 44° WNW 18:27:33 10° N
USA 116 4.5 18:20:22 10° N 18:23:22 40° WNW 18:26:17 10° SW
CZ-4 R/B 3.6 18:21:39 10° SSW 18:25:02 29° W 18:28:29 10° NW
SJ-6B 3.5 18:22:31 10° SE 18:26:14 34° ENE 18:30:00 10° N
Cosmos 1300 4.3 18:26:01 10° NNW 18:29:36 39° W 18:33:11 10° SSW
Cosmos 1707 Rocket 3.5 18:25:28 10° N 18:29:47 61° E 18:34:04 10° SSE
USA 229 DEB 4.4 18:24:03 10° S 18:30:06 35° ESE 18:34:38 17° ENE
USA 229 4.4 18:24:10 10° S 18:30:12 34° ESE 18:34:42 17° ENE
Spot 2 Rocket 4.4 18:27:22 10° ESE 18:31:32 27° ENE 18:35:42 10° N
COSMO-SKYMED 1 2.5 18:27:41 10° NNE 18:32:04 73° ESE 18:36:23 10° S
Cosmos 2151 3.6 18:27:59 10° SSW 18:32:08 57° WNW 18:36:17 10° N
YAOGAN 1 4.3 18:28:52 10° SSW 18:32:53 37° W 18:36:55 10° NNW
Iridium 4 Rocket 3.9 18:30:48 10° SE 18:34:26 26° E 18:37:08 14° NE
Cosmos 2084 Rocket 4.5 18:33:20 10° NNW 18:36:22 22° NE 18:36:52 21° NE
Cosmos 2237 Rocket 2.9 18:34:27 10° SW 18:39:58 55° WNW 18:45:32 10° NNE
Thor Agena Rocket 4.3 18:35:42 10° N 18:40:49 55° WNW 18:45:50 10° SW
Cosmos 2369 Rocket 3.2 18:36:34 10° N 18:41:16 26° NE 18:42:51 23° ENE
FREGAT/IRIS 3.0 18:38:44 10° SE 18:41:37 39° ENE 18:44:31 10° N
Cosmos 1666 Rocket 3.6 18:38:32 10° S 18:42:47 57° E 18:47:07 10° NNE
FAST Rocket 4.0 18:41:24 10° S 18:43:57 57° E 18:46:08 17° NNE
Cosmos 1538 Rocket 4.0 18:42:34 10° S 18:47:50 70° ESE 18:53:05 11° NNE
SL-16 R/B 2.1 18:42:43 10° SSW 18:48:22 82° ESE 18:53:50 11° NNE
Cosmos 1484 Rocket 4.2 18:45:37 10° S 18:49:22 41° W 18:53:11 10° NNW
Cosmos 1340 Rocket 3.5 18:48:27 10° SSW 18:52:17 53° WNW 18:56:09 10° N
Resurs 1-3 4.3 18:53:23 31° ENE 18:53:23 31° ENE 18:57:07 10° N
Resurs 01 Rocket 2.1 18:49:46 13° SE 18:53:19 37° ENE 18:57:24 10° N
Meteor 1-28 Rocket 3.1 18:50:16 10° NNE 18:54:00 87° WNW 18:57:44 10° SSW
Cosmos 1933 Rocket 4.5 18:50:35 10° SSE 18:53:46 28° ESE 18:53:46 28° ESE
Cosmos 923 Rocket 4.4 18:50:57 10° S 18:55:43 38° ESE 18:57:25 29° ENE
TIMED 4.4 18:51:26 10° NNW 18:55:50 70° ENE 19:00:11 10° SSE
Cosmos 304 Rocket 4.1 18:51:46 10° SSW 18:56:33 66° WNW 19:01:21 10° NNE
Lacrosse 4 Rocket 1.1 18:54:37 10° NNW 18:58:43 80° ENE 19:01:45 17° SE
Blok-2BL 3.6 18:56:44 10° NNW 18:59:40 45° NNE 18:59:40 45° NNE
Cosmos 1680 Rocket 4.1 18:57:31 10° SSE 19:02:09 33° E 19:02:29 33° E
Cosmos 1869 3.2 19:00:33 10° N 19:04:37 71° E 19:08:38 10° SSE
Cosmos 1867 4.3 19:01:53 10° NNW 19:06:46 31° NE 19:07:15 31° NE
CZ-4C R/B 3.9 19:01:38 10° NNW 19:07:03 25° NNE 19:08:40 23° NE
FENGYUN 3A 3.6 19:08:18 10° SSE 19:13:35 64° ENE 19:18:55 10° N
METEOR-M 4.3 19:08:23 10° S 19:13:43 72° WSW 19:19:06 10° NNW
Cosmos 1470 Rocket 3.6 19:11:38 10° S 19:15:29 51° ESE 19:15:29 51° ESE
Cosmos 2242 Rocket 3.7 19:17:13 10° NNW 19:21:39 74° W 19:26:04 10° S
NOSS 3-1 (C) 4.4 19:16:53 10° S 19:20:20 26° SE 19:20:20 26° SE
Cosmos 773 Rocket 3.9 19:17:00 10° SSW 19:22:11 88° WNW 19:25:15 26° NNE
Cosmos 1461 3.9 19:19:38 10° WSW 19:23:34 41° NW 19:25:03 29° N
Cosmos 1626 3.6 19:21:41 10° SW 19:25:12 38° WNW 19:28:44 10° N
Lacrosse 5 3.1 19:22:04 10° NW 19:26:23 27° NNE 19:26:32 27° NNE
ATLAS 5 CENTAUR R/B 3.1 19:23:58 10° NNW 19:28:57 32° NNE 19:28:57 32° NNE
ATLAS 3B R/B 4.0 19:27:03 10° NNW 19:32:27 22° NNE 19:33:09 22° NNE
USA 215 3.3 19:28:14 24° SE 19:32:31 76° SW 19:39:05 10° NW
Sich 1 4.2 19:29:32 10° SSW 19:33:48 44° WNW 19:38:04 10° N
Nadezhda 4 Rocket 4.5 19:27:56 10° SSW 19:34:07 62° WNW 19:40:25 10° N
Cosmos 2026 Rocket 3.8 19:31:41 10° S 19:37:46 63° E 19:40:53 30° NNE
Cosmos 2112 Rocket 4.2 19:33:28 10° S 19:37:38 51° SSE 19:37:38 51° SSE
ALOS 2.5 19:37:08 10° S 19:41:47 70° WSW 19:46:29 10° NNW
Cosmos 1633 Rocket 4.4 19:40:14 10° SW 19:44:22 39° WNW 19:48:30 10° N
Aureole 1 Rocket 4.3 19:38:40 10° SSW 19:44:24 70° WNW 19:51:56 10° NNE
Cosmos 1943 Rocket 3.4 19:41:17 10° NNW 19:44:17 27° NNE 19:44:17 27° NNE
Meteor 2-20 4.3 19:47:02 10° S 19:53:06 74° E 19:53:36 70° ENE
Cosmos 292 Rocket 3.9 19:48:24 10° SSW 19:52:44 70° WSW 19:52:44 70° WSW
Cosmos 1603 3.6 19:47:35 10° SSW 19:53:12 82° WNW 19:54:02 65° N
Cosmos 1553 Rocket 4.3 19:52:53 10° N 19:57:35 51° NNE 19:57:35 51° NNE
Cosmos 972 Rocket 4.1 19:55:15 10° NNW 20:00:30 81° WSW 20:00:40 80° SW
USA 229 DEB 4.1 20:13:58 10° SW 20:20:44 60° NW 20:22:08 51° N
USA 229 4.1 20:14:03 10° SW 20:20:50 60° NW 20:22:11 51° N
Cosmos 2369 Rocket 2.8 20:20:09 10° NNW 20:24:42 52° WNW 20:24:42 52° WNW
Resurs 01 Rocket 3.8 20:27:17 15° SW 20:29:53 24° W 20:33:31 10° NW
SL-16 R/B 4.4 20:29:03 10° W 20:33:13 20° NW 20:35:45 16° NNW
CZ-4C R/B 3.8 20:49:54 10° NW 20:53:53 38° NNW 20:53:53 38° NNW
ATLAS 5 CENTAUR R/B 4.3 21:08:25 10° NW 21:10:32 24° NW 21:10:32 24° NW
ATLAS 3B R/B 4.5 21:17:53 10° NW 21:20:25 23° NNW 21:20:25 23° NNW
